Weather in Afanasyevo

Russia / Lipetsk Oblast     52°34′13″N   38°11′28″E
temp.,
°C
wind,
m/s
gust,
m/s
humid.,
%
clouds,
%
prec.,
mm/h
press.,
hPa
HPBL,
m
5 august, thu
thu500:00+16nnw22674 0.0 101812
03:00+15nnw11695 0.0 101811
06:00+16ne2267100 0.0 101725
09:00+21se225058 0.0 1017462
12:00+26s2335100 0.0 10161742
15:00+25w2238100 0.0 1016457
18:00+25e2338100 0.0 1014335
21:00+21e2249100 0.1 101426
6 august, fri
fri600:00+21ese345069 0.1 101468
03:00+20se355171 0.1 1013102
06:00+20s2454100 0.0 101275
09:00+26sse5836100 0.0 1011594
12:00+30s683375 0.0 10101655
15:00+33s6828100 0.0 10083052
18:00+31s583464 0.0 10071367
21:00+25sse2347100 0.0 100835
7 august, sat
sat700:00+24sse41343100 0.0 1008350
03:00+22sse41042100 0.0 1009213
06:00+23sse5134193 0.1 1010445
09:00+23s51257100 0.1 1010700
12:00+27sse61040100 0.1 1010792
15:00+28s4831100 0.1 10101007
18:00+26wnw344474 0.3 100966
21:00+23nnw334839 0.3 100939
8 august, sun
sun800:00+22nw3553100 0.0 101084
03:00+19nnw41086100 0.1 1011290
06:00+19n51188100 0.2 1012387
09:00+20n4785100 1.8 1013324
12:00+25n4461100 0.0 1014863
15:00+24ne346275 0.1 1014466
18:00+26ese21451 0.0 1014676
21:00+21ne11640 0.1 101611
9 august, mon
mon900:00+19n36827 0.0 1016103
03:00+18n357834 0.0 101793
06:00+18nne247629 0.0 101799
09:00+25nne34555 0.0 1017596
12:00+29n21395 0.0 10171521
15:00+31wnw333412 0.0 10172203
18:00+30nw43325 0.0 10161070
21:00+24n33435 0.0 101744